TimeCST,TemperatureF,Dew PointF,Humidity,Sea Level PressureIn,VisibilityMPH,Wind Direction,Wind SpeedMPH,Gust SpeedMPH,PrecipitationIn,Events,Conditions,WindDirDegrees,DateUTC
12:53 AM,37.0,23.0,57,30.39,10.0,SSE,6.9,-,N/A,,Mostly Cloudy,160,2012-11-14 06:53:00
1:53 AM,36.0,23.0,59,30.38,10.0,SSE,6.9,-,N/A,,Clear,160,2012-11-14 07:53:00
2:53 AM,37.0,24.1,59,30.37,10.0,SSE,6.9,-,N/A,,Partly Cloudy,160,2012-11-14 08:53:00
3:53 AM,37.0,26.1,65,30.36,10.0,South,10.4,-,N/A,,Clear,170,2012-11-14 09:53:00
4:53 AM,37.9,27.0,65,30.35,10.0,South,10.4,-,N/A,,Overcast,170,2012-11-14 10:53:00
5:53 AM,39.0,27.0,62,30.35,10.0,South,13.8,-,N/A,,Mostly Cloudy,170,2012-11-14 11:53:00
6:53 AM,39.0,26.1,60,30.36,10.0,South,11.5,-,N/A,,Overcast,170,2012-11-14 12:53:00
7:53 AM,39.0,28.0,65,30.36,10.0,SSE,9.2,-,N/A,,Clear,160,2012-11-14 13:53:00
8:53 AM,39.9,28.0,63,30.36,10.0,South,11.5,-,N/A,,Clear,170,2012-11-14 14:53:00
9:53 AM,42.1,28.0,58,30.36,10.0,South,11.5,-,N/A,,Clear,170,2012-11-14 15:53:00
10:53 AM,46.0,28.9,51,30.34,10.0,South,11.5,-,N/A,,Clear,170,2012-11-14 16:53:00
11:53 AM,48.0,30.0,50,30.32,10.0,South,15.0,-,N/A,,Clear,180,2012-11-14 17:53:00
12:53 PM,48.9,30.0,48,30.30,10.0,South,15.0,-,N/A,,Clear,170,2012-11-14 18:53:00
1:53 PM,50.0,30.0,46,30.28,10.0,South,15.0,-,N/A,,Clear,180,2012-11-14 19:53:00
2:53 PM,51.1,30.9,46,30.27,10.0,South,10.4,-,N/A,,Clear,180,2012-11-14 20:53:00
3:53 PM,51.1,30.0,44,30.27,-9999.0,South,12.7,-,N/A,,Clear,180,2012-11-14 21:53:00
4:53 PM,48.0,30.0,50,30.27,10.0,South,9.2,-,N/A,,Clear,180,2012-11-14 22:53:00
5:53 PM,48.0,30.9,52,30.26,10.0,South,10.4,-,N/A,,Clear,170,2012-11-14 23:53:00
6:53 PM,45.0,30.9,58,30.27,10.0,South,6.9,-,N/A,,Clear,180,2012-11-15 00:53:00
7:53 PM,45.0,32.0,60,30.27,10.0,South,8.1,-,N/A,,Clear,180,2012-11-15 01:53:00
8:53 PM,45.0,32.0,60,30.27,10.0,South,10.4,-,N/A,,Mostly Cloudy,190,2012-11-15 02:53:00
9:53 PM,44.1,32.0,63,30.27,10.0,South,11.5,-,N/A,,Mostly Cloudy,180,2012-11-15 03:53:00
10:53 PM,45.0,30.9,58,30.26,10.0,South,13.8,-,N/A,,Clear,180,2012-11-15 04:53:00
11:53 PM,44.1,30.9,60,30.27,10.0,South,11.5,-,N/A,,Clear,170,2012-11-15 05:53:00